North Vernon, Indiana, United States (47265)
Lat: 39.01N, Lon: 85.62W
Wx Zone: INZ072
Local Info
Past Weather Observations for Monday, January 26, 2015

NOTE: This archive is for the closest National Weather Service station to North Vernon. Information may differ from the station used for current weather conditions.

Click here for Long-term Archive

Time Weather Temperature Dewpoint Humidity Pressure Winds Precip Visibility
23:53
Overcast
Light Snow
28°F / -2°C 21°F / -6°C 74% 29.92 in
(1013 mb)
E 4.6 mph
(E 7 kph)
0.00 in
(0.00 mm)
7SM
22:53
Overcast
28°F / -2°C 21°F / -6°C 74% 29.95 in
(1014 mb)
Calm - 10SM
21:53
Overcast
28°F / -2°C 21°F / -6°C 74% 29.92 in
(1013 mb)
Calm - 10SM
20:53
Overcast
28°F / -2°C 19°F / -7°C 69% 29.95 in
(1014 mb)
Calm - 10SM
19:53
Overcast
28°F / -2°C 19°F / -7°C 69% 29.92 in
(1013 mb)
Calm - 10SM
18:53
Overcast
27°F / -3°C 19°F / -7°C 74% 29.92 in
(1013 mb)
Calm - 10SM
17:53
Overcast
28°F / -2°C 18°F / -8°C 64% 29.92 in
(1013 mb)
Calm - 10SM
16:53
Overcast
28°F / -2°C 19°F / -7°C 69% 29.92 in
(1013 mb)
SSW 8.1 mph
(SSW 13 kph)
- 10SM
15:53
Overcast
28°F / -2°C 19°F / -7°C 69% 29.92 in
(1013 mb)
SSW 9.2 mph
(SSW 15 kph)
- 10SM
15:35
Overcast
28°F / -2°C 19°F / -7°C 69% 29.92 in
(1013 mb)
SSW 10.4 mph
(SSW 17 kph)
- 10SM
15:06
Mostly Cloudy
28°F / -2°C 19°F / -7°C 69% 29.92 in
(1013 mb)
SSW 10.4 mph
(SSW 17 kph)
- 10SM
14:53
Partly Cloudy
28°F / -2°C 21°F / -6°C 74% 29.89 in
(1012 mb)
W 10.4 mph
(W 17 kph)
- 10SM
14:48
Partly Cloudy
28°F / -2°C 21°F / -6°C 74% 29.89 in
(1012 mb)
SSW 12.7 mph
(SSW 20 kph)
- 10SM
13:53
Mostly Cloudy
28°F / -2°C 19°F / -7°C 69% 29.92 in
(1013 mb)
W 6.9 mph
(W 11 kph)
- 10SM
12:53
Mostly Cloudy
28°F / -2°C 19°F / -7°C 69% 29.92 in
(1013 mb)
W 9.2 mph
(W 15 kph)
- 10SM
11:53
Clear
27°F / -3°C 16°F / -9°C 64% 29.95 in
(1014 mb)
NW 5.8 mph
(NW 9 kph)
- 10SM
10:53
Clear
25°F / -4°C 16°F / -9°C 69% 29.95 in
(1014 mb)
NW 8.1 mph
(NW 13 kph)
- 10SM
09:53
Clear
23°F / -5°C 14°F / -10°C 68% 29.95 in
(1014 mb)
NNW 8.1 mph
(NNW 13 kph)
- 10SM
08:53
Clear
19°F / -7°C 12°F / -11°C 73% 29.95 in
(1014 mb)
NNW 8.1 mph
(NNW 13 kph)
- 10SM
07:53
Clear
19°F / -7°C 12°F / -11°C 73% 29.92 in
(1013 mb)
N 9.2 mph
(N 15 kph)
- 10SM
06:53
Overcast
21°F / -6°C 14°F / -10°C 74% 29.92 in
(1013 mb)
N 15 mph
(N 24 kph)
- 10SM
06:38
Overcast
21°F / -6°C 16°F / -9°C 80% 29.89 in
(1012 mb)
N 15 mph
(N 24 kph)
- 10SM
05:53
Overcast
21°F / -6°C 16°F / -9°C 80% 29.89 in
(1012 mb)
N 15 mph
(N 24 kph)
- 10SM
04:53
Overcast
21°F / -6°C 16°F / -9°C 80% 29.89 in
(1012 mb)
N 15 mph
(N 24 kph)
- 10SM
04:40
Overcast
21°F / -6°C 16°F / -9°C 80% 29.89 in
(1012 mb)
N 19.6 mph
(N 32 kph)
- 10SM
03:53
Overcast
21°F / -6°C 16°F / -9°C 80% 29.89 in
(1012 mb)
N 16.1 mph
(N 26 kph)
- 10SM
02:53
Overcast
21°F / -6°C 16°F / -9°C 80% 29.83 in
(1010 mb)
NNE 12.7 mph
(NNE 20 kph)
- 10SM
01:53
Overcast
23°F / -5°C 18°F / -8°C 80% 29.83 in
(1010 mb)
N 13.8 mph
(N 22 kph)
- 10SM
00:53
Overcast
25°F / -4°C 18°F / -8°C 74% 29.83 in
(1010 mb)
N 18.4 mph
(N 30 kph)
- 10SM
Time Weather Temperature Dewpoint Humidity Pressure Winds Precip Visibility


Weather for websites

WeatherForYou.com, LLC is not responsible for any damages or problems caused by this service. Current weather conditions are obtained from the closest station including government and personal stations which may have varying degrees of accuracy. Weather forecasts are derived from the NOAA NDFD. Like all things, this site belongs to Jesus Christ... He just trusts me to maintain it. If you have any questions or comments email webmaster@weatherforyou.com

Copyright © 2015, WeatherForYou.com LLC. All rights reserved.